SES-11 (ECHOSTAR 105) (42967 NORAD) Tracking and Keplerian Element Data

This shows tracking and keplerian element data for the satellite.

Feedback or suggestion? Click here.




ElementValue
Catalog42967
NameSES-11 (ECHOSTAR 105)
Epoch Orbit1443
Epoch Day269.88593096
Epoch Year2021
RAAN271.3971
Inclination0.0377
Eccentricity0.0002529
Argument of Perigee287.1558
Mean Anonmoly21.3422
Mean Motion1.00272518
Decay Rate-9.1E-07
L11 42967U 17063A 21269.88593096 -.00000091 00000-0 00000-0 0 9994
L22 42967 0.0377 271.3971 0002529 287.1558 21.3422 1.00272518 14433

Live tracking and technical data element details for SES-11 (ECHOSTAR 105) (NORAD 42967). SES-11 (ECHOSTAR 105) can be tracked NOW for your location showing map with azimuth and elevation plus other details from your city location.

Track the satellite on the map from your city or location and see movement details for azimuth, elevation, latitude, longitude, range, height, and movement on the map or in text.







IsCatalogInMostPopularTable: catalog: 42967, numindb: 653
Update: records affected: 1



GetName: 42967 SES-11 (ECHOSTAR 105)

Hit Count: updated at: Tue, 28 Sep 2021 17:04:22 GMT